Location: Gokavaram
(16.9752°N, 81.0696°E)
Time: 21:18:16
(UTC+00:00)

Cosmos 1455 Rocket - Pass Details

Date: 15 May 2026
Orbit: 597 x 623 km, 82.5° (Epoch: 10 June)

Event Time Altitude Azimuth Distance (km) Brightness Sun altitude
Exits shadow 14:46:39 - 205° (SSW) 2,064 5.7 -24.0°
Reaches altitude 10° 14:46:52 10° 206° (SSW) 1,983 5.6 -24.0°
Maximum altitude 14:50:59 40° 276° (W) 923 4.3 -24.9°
Drops below altitude 10° 14:55:07 10° 346° (NNW) 1,980 6.2 -25.7°
Sets 14:57:27 0° 354° (N) 2,883 7.0 -26.2°
